Kansai Intl current weather conditions

sailwx.info

Wind from 080 at 7 knots

Air temperature 2.0° C
Visibility: greater than 5.4 NM
Dewpoint -3.0° C

Last reported at 2016-Feb-07 20:30 UTC.
Time now 2016-Feb-07 21:45 UTC

Location: N 34°26' E 135°15'.
View on Google Maps.

See reports from other nearby stations

  
Tides and Currents Weather Stations Pressure Air Temp Water Temp Dewpoint Dewpoint Depression Visibility Wind Speed Wind Dir Waves Ship Positions
date/time (UTC)wind fromknots sea level pressurealtimeterstation pressurevisibilityair tempwater tempwave heightnotes
2016-Feb-07 20:30 080 7 5.4 2.0
2016-Feb-07 20:00 060 8 5.4 3.0
2016-Feb-07 19:30 070 9 5.4 3.0
2016-Feb-07 19:00 070 7 5.4 3.0
2016-Feb-07 18:30 080 7 5.4 3.0
2016-Feb-07 18:00 060 8 5.4 2.0
2016-Feb-07 17:30 070 8 5.4 3.0
2016-Feb-07 17:00 060 9 5.4 3.0
2016-Feb-07 16:30 070 8 5.4 4.0
2016-Feb-07 16:00 060 9 5.4 4.0
2016-Feb-07 15:30 060 10 5.4 4.0
2016-Feb-07 15:00 070 9 5.4 4.0
2016-Feb-07 14:30 080 8 5.4 4.0
2016-Feb-07 14:00 090 8 5.4 4.0
2016-Feb-07 13:30 090 7 5.4 4.0
2016-Feb-07 13:00 090 7 5.4 4.0
2016-Feb-07 12:30 090 8 5.4 5.0
2016-Feb-07 12:00 040 11 5.4 4.0
2016-Feb-07 11:30 040 12 5.4 4.0
2016-Feb-07 11:00 040 12 5.4 4.0
2016-Feb-07 10:30 030 11 5.4 5.0
2016-Feb-07 10:00 020 10 5.4 5.0
2016-Feb-07 09:30 360 9 5.4 5.0
2016-Feb-07 09:00 360 6 5.4 5.0
2016-Feb-07 08:30 340 7 5.4 6.0 Light rain showers.
2016-Feb-07 08:00 310 3 5.4 6.0 Light rain showers.
2016-Feb-07 07:30 040 4 5.4 6.0
2016-Feb-07 07:00 050 3 5.4 6.0
2016-Feb-07 06:30 030 8 5.4 6.0
2016-Feb-07 06:00 060 6 5.4 7.0
2016-Feb-07 05:30 010 6 5.4 6.0
2016-Feb-07 05:00 040 7 5.4 7.0
2016-Feb-07 04:30 020 7 5.4 7.0
2016-Feb-07 04:00 360 7 5.4 7.0
2016-Feb-07 03:30 010 10 5.4 6.0
2016-Feb-07 03:00 350 9 5.4 6.0
2016-Feb-07 02:30 030 12 5.4 6.0
2016-Feb-07 02:00 030 10 5.4 5.0 Showers in the vicinity.
2016-Feb-07 01:30 050 12 5.4 4.0 Light rain showers.
2016-Feb-07 01:00 020 13 5.4 4.0 Light rain showers.
2016-Feb-07 00:30 010 11 5.4 4.0 Light rain showers.
2016-Feb-07 00:00 020 14 5.4 4.0 Showers in the vicinity.
2016-Feb-06 23:30 030 12 5.4 4.0
2016-Feb-06 23:00 040 13 5.4 4.0
2016-Feb-06 22:30 040 14 5.4 4.0
2016-Feb-06 22:00 040 18 5.4 4.0 Showers in the vicinity.
2016-Feb-06 21:30 030 17 5.4 4.0 Showers in the vicinity.
2016-Feb-06 21:00 030 17 5.4 4.0 Showers in the vicinity.
2016-Feb-06 20:30 340 13 5.4 5.0 Showers in the vicinity.
2016-Feb-06 20:00 330 14 5.4 5.0 Showers in the vicinity.
2016-Feb-06 19:30 320 14 5.4 5.0 Showers in the vicinity.
2016-Feb-06 19:00 330 15 5.4 5.0
2016-Feb-06 18:30 320 16 5.4 5.0
2016-Feb-06 18:00 330 17 5.4 5.0
2016-Feb-06 17:30 320 17 5.4 5.0
2016-Feb-06 17:00 330 13 5.4 5.0 Showers in the vicinity.
2016-Feb-06 16:30 320 15 5.4 5.0 Showers in the vicinity.
2016-Feb-06 16:00 310 13 5.4 6.0 Showers in the vicinity.
2016-Feb-06 15:30 290 15 5.4 6.0
2016-Feb-06 15:00 290 15 5.4 6.0
2016-Feb-06 14:30 290 12 5.4 6.0
2016-Feb-06 14:00 290 11 5.4 6.0
2016-Feb-06 13:30 310 11 5.4 6.0
2016-Feb-06 13:00 320 12 5.4 6.0
2016-Feb-06 12:30 320 13 5.4 6.0
2016-Feb-06 12:00 320 11 5.4 7.0
2016-Feb-06 11:30 330 12 5.4 7.0
2016-Feb-06 11:00 340 11 5.4 8.0
2016-Feb-06 10:30 350 13 5.4 8.0
2016-Feb-06 10:00 350 14 5.4 8.0
2016-Feb-06 09:30 290 13 5.4 8.0
2016-Feb-06 09:00 290 9 5.4 8.0
2016-Feb-06 08:30 290 11 5.4 8.0
2016-Feb-06 08:00 280 11 5.4 8.0
2016-Feb-06 07:30 270 9 5.4 8.0
2016-Feb-06 07:00 290 7 5.4 9.0
2016-Feb-06 06:30 290 3 5.4 8.0
2016-Feb-06 06:00 200 5 5.4 8.0
2016-Feb-06 05:30 250 6 5.4 8.0
2016-Feb-06 05:00 280 6 5.4 9.0
2016-Feb-06 04:30 290 5 5.4 8.0
2016-Feb-06 04:00 280 5 5.4 8.0
2016-Feb-06 03:30 310 6 5.4 8.0
2016-Feb-06 03:00 300 7 5.4 8.0
2016-Feb-06 02:30 310 10 5.4 8.0
2016-Feb-06 02:00 310 11 5.4 8.0
2016-Feb-06 01:30 330 10 5.4 7.0
2016-Feb-06 01:00 320 10 5.4 7.0
2016-Feb-06 00:30 320 8 5.4 8.0
2016-Feb-06 00:00 310 9 5.4 7.0
2016-Feb-05 23:30 320 10 5.4 7.0
2016-Feb-05 23:00 310 10 5.4 6.0
2016-Feb-05 22:30 300 10 5.4 6.0
2016-Feb-05 22:00 310 7 5.4 6.0
2016-Feb-05 21:30 310 8 5.4 5.0
2016-Feb-05 21:00 310 7 5.4 6.0